Year,Month,Day,Hour,Minute,Value (Times are PST for temperature in C)
2009,09,24,00,00,15.00
2009,09,24,00,01,14.90
2009,09,24,00,02,14.90
2009,09,24,00,03,14.80
2009,09,24,00,04,14.80
2009,09,24,00,05,14.80
2009,09,24,00,06,14.80
2009,09,24,00,07,14.70
2009,09,24,00,08,14.70
2009,09,24,00,09,14.70
2009,09,24,00,10,14.70
2009,09,24,00,11,14.70
2009,09,24,00,12,14.70
2009,09,24,00,13,14.60
2009,09,24,00,14,14.60
2009,09,24,00,15,14.60
2009,09,24,00,16,14.60
2009,09,24,00,17,14.60
2009,09,24,00,18,14.50
2009,09,24,00,19,14.50
2009,09,24,00,20,14.50
2009,09,24,00,21,14.40
2009,09,24,00,22,14.40
2009,09,24,00,23,14.40
2009,09,24,00,24,14.30
2009,09,24,00,25,14.30
2009,09,24,00,26,14.30
2009,09,24,00,27,14.30
2009,09,24,00,28,14.30
2009,09,24,00,29,14.30
2009,09,24,00,30,14.30
2009,09,24,00,31,14.20
2009,09,24,00,32,14.20
2009,09,24,00,33,14.20
2009,09,24,00,34,14.20
2009,09,24,00,35,14.20
2009,09,24,00,36,14.20
2009,09,24,00,37,14.20
2009,09,24,00,38,14.20
2009,09,24,00,39,14.20
2009,09,24,00,40,14.10
2009,09,24,00,41,14.10
2009,09,24,00,42,14.10
2009,09,24,00,43,14.10
2009,09,24,00,44,14.10
2009,09,24,00,45,14.10
2009,09,24,00,46,14.00
2009,09,24,00,47,14.00
2009,09,24,00,48,14.00
2009,09,24,00,49,13.90
2009,09,24,00,50,13.90
2009,09,24,00,51,13.90
2009,09,24,00,52,13.90
2009,09,24,00,53,13.90
2009,09,24,00,54,13.90
2009,09,24,00,55,13.90
2009,09,24,00,56,13.90
2009,09,24,00,57,13.80
2009,09,24,00,58,13.80
2009,09,24,00,59,13.80
2009,09,24,01,00,13.80
2009,09,24,01,01,13.80
2009,09,24,01,02,13.80
2009,09,24,01,03,13.80
2009,09,24,01,04,13.80
2009,09,24,01,05,13.70
2009,09,24,01,06,13.70
2009,09,24,01,07,13.70
2009,09,24,01,08,13.70
2009,09,24,01,09,13.70
2009,09,24,01,10,13.70
2009,09,24,01,11,13.70
2009,09,24,01,12,13.70
2009,09,24,01,13,13.60
2009,09,24,01,14,13.60
2009,09,24,01,15,13.60
2009,09,24,01,16,13.60
2009,09,24,01,17,13.60
2009,09,24,01,18,13.60
2009,09,24,01,19,13.60
2009,09,24,01,20,13.60
2009,09,24,01,21,13.50
2009,09,24,01,22,13.50
2009,09,24,01,23,13.50
2009,09,24,01,24,13.50
2009,09,24,01,25,13.50
2009,09,24,01,26,13.40
2009,09,24,01,27,13.40
2009,09,24,01,28,13.40
2009,09,24,01,29,13.40
2009,09,24,01,30,13.40
2009,09,24,01,31,13.40
2009,09,24,01,32,13.40
2009,09,24,01,33,13.30
2009,09,24,01,34,13.30
2009,09,24,01,35,13.30
2009,09,24,01,36,13.30
2009,09,24,01,37,13.30
2009,09,24,01,38,13.30
2009,09,24,01,39,13.30
2009,09,24,01,40,13.20
2009,09,24,01,41,13.20
2009,09,24,01,42,13.20
2009,09,24,01,43,13.20
2009,09,24,01,44,13.20
2009,09,24,01,45,13.20
2009,09,24,01,46,13.20
2009,09,24,01,47,13.20
2009,09,24,01,48,13.20
2009,09,24,01,49,13.20
2009,09,24,01,50,13.20
2009,09,24,01,51,13.20
2009,09,24,01,52,13.20
2009,09,24,01,53,13.20
2009,09,24,01,54,13.20
2009,09,24,01,55,13.20
2009,09,24,01,56,13.20
2009,09,24,01,57,13.20
2009,09,24,01,58,13.20
2009,09,24,01,59,13.20
2009,09,24,02,00,13.20
2009,09,24,02,01,13.20
2009,09,24,02,02,13.20
2009,09,24,02,03,13.20
2009,09,24,02,04,13.20
2009,09,24,02,05,13.20
2009,09,24,02,06,13.20
2009,09,24,02,07,13.20
2009,09,24,02,08,13.20
2009,09,24,02,09,13.20
2009,09,24,02,10,13.20
2009,09,24,02,11,13.10
2009,09,24,02,12,13.10
2009,09,24,02,13,13.10
2009,09,24,02,14,13.10
2009,09,24,02,15,13.10
2009,09,24,02,16,13.10
2009,09,24,02,17,13.10
2009,09,24,02,18,13.10
2009,09,24,02,19,13.10
2009,09,24,02,20,13.10
2009,09,24,02,21,13.10
2009,09,24,02,22,13.10
2009,09,24,02,23,13.10
2009,09,24,02,24,13.10
2009,09,24,02,25,13.00
2009,09,24,02,26,13.00
2009,09,24,02,27,13.00
2009,09,24,02,28,13.00
2009,09,24,02,29,13.00
2009,09,24,02,30,12.90
2009,09,24,02,31,12.90
2009,09,24,02,32,12.90
2009,09,24,02,33,12.90
2009,09,24,02,34,12.90
2009,09,24,02,35,12.90
2009,09,24,02,36,12.90
2009,09,24,02,37,12.90
2009,09,24,02,38,12.90
2009,09,24,02,39,12.90
2009,09,24,02,40,12.90
2009,09,24,02,41,12.90
2009,09,24,02,42,13.00
2009,09,24,02,43,13.00
2009,09,24,02,44,13.00
2009,09,24,02,45,13.00
2009,09,24,02,46,13.00
2009,09,24,02,47,13.00
2009,09,24,02,48,13.00
2009,09,24,02,49,12.90
2009,09,24,02,50,12.90
2009,09,24,02,51,12.90
2009,09,24,02,52,12.90
2009,09,24,02,53,12.90
2009,09,24,02,54,12.90
2009,09,24,02,55,12.90
2009,09,24,02,56,12.90
2009,09,24,02,57,12.90
2009,09,24,02,58,12.80
2009,09,24,02,59,12.80
2009,09,24,03,00,12.80
2009,09,24,03,01,12.80
2009,09,24,03,02,12.80
2009,09,24,03,03,12.80
2009,09,24,03,04,12.80
2009,09,24,03,05,12.80
2009,09,24,03,06,12.80
2009,09,24,03,07,12.80
2009,09,24,03,08,12.80
2009,09,24,03,09,12.80
2009,09,24,03,10,12.80
2009,09,24,03,11,12.80
2009,09,24,03,12,12.70
2009,09,24,03,13,12.70
2009,09,24,03,14,12.70
2009,09,24,03,15,12.70
2009,09,24,03,16,12.70
2009,09,24,03,17,12.70
2009,09,24,03,18,12.70
2009,09,24,03,19,12.70
2009,09,24,03,20,12.80
2009,09,24,03,21,12.80
2009,09,24,03,22,12.80
2009,09,24,03,23,12.80
2009,09,24,03,24,12.80
2009,09,24,03,25,12.80
2009,09,24,03,26,12.80
2009,09,24,03,27,12.80
2009,09,24,03,28,12.80
2009,09,24,03,29,12.80
2009,09,24,03,30,12.80
2009,09,24,03,31,12.80
2009,09,24,03,32,12.80
2009,09,24,03,33,12.80
2009,09,24,03,34,12.80
2009,09,24,03,35,12.80
2009,09,24,03,36,12.80
2009,09,24,03,37,12.80
2009,09,24,03,38,12.80
2009,09,24,03,39,12.80
2009,09,24,03,40,12.80
2009,09,24,03,41,12.80
2009,09,24,03,42,12.80
2009,09,24,03,43,12.80
2009,09,24,03,44,12.80
2009,09,24,03,45,12.80
2009,09,24,03,46,12.80
2009,09,24,03,47,12.70
2009,09,24,03,48,12.70
2009,09,24,03,49,12.70
2009,09,24,03,50,12.70
2009,09,24,03,51,12.70
2009,09,24,03,52,12.70
2009,09,24,03,53,12.60
2009,09,24,03,54,12.60
2009,09,24,03,55,12.60
2009,09,24,03,56,12.60
2009,09,24,03,57,12.50
2009,09,24,03,58,12.50
2009,09,24,03,59,12.40
2009,09,24,04,00,12.40
2009,09,24,04,01,12.40
2009,09,24,04,02,12.30
2009,09,24,04,03,12.30
2009,09,24,04,04,12.30
2009,09,24,04,05,12.30
2009,09,24,04,06,12.30
2009,09,24,04,07,12.30
2009,09,24,04,08,12.30
2009,09,24,04,09,12.30
2009,09,24,04,10,12.30
2009,09,24,04,11,12.20
2009,09,24,04,12,12.20
2009,09,24,04,13,12.20
2009,09,24,04,14,12.20
2009,09,24,04,15,12.20
2009,09,24,04,16,12.20
2009,09,24,04,17,12.20
2009,09,24,04,18,12.20
2009,09,24,04,19,12.20
2009,09,24,04,20,12.20
2009,09,24,04,21,12.20
2009,09,24,04,22,12.20
2009,09,24,04,23,12.20
2009,09,24,04,24,12.20
2009,09,24,04,25,12.20
2009,09,24,04,26,12.20
2009,09,24,04,27,12.20
2009,09,24,04,28,12.20
2009,09,24,04,29,12.20
2009,09,24,04,30,12.20
2009,09,24,04,31,12.20
2009,09,24,04,32,12.20
2009,09,24,04,33,12.20
2009,09,24,04,34,12.20
2009,09,24,04,35,12.20
2009,09,24,04,36,12.20
2009,09,24,04,37,12.20
2009,09,24,04,38,12.20
2009,09,24,04,39,12.10
2009,09,24,04,40,12.10
2009,09,24,04,41,12.10
2009,09,24,04,42,12.10
2009,09,24,04,43,12.10
2009,09,24,04,44,12.10
2009,09,24,04,45,12.10
2009,09,24,04,46,12.10
2009,09,24,04,47,12.10
2009,09,24,04,48,12.00
2009,09,24,04,49,12.00
2009,09,24,04,50,12.00
2009,09,24,04,51,11.90
2009,09,24,04,52,11.90
2009,09,24,04,53,11.90
2009,09,24,04,54,11.90
2009,09,24,04,55,11.90
2009,09,24,04,56,11.90
2009,09,24,04,57,11.90
2009,09,24,04,58,11.90
2009,09,24,04,59,11.90
2009,09,24,05,00,11.90
2009,09,24,05,01,11.90
2009,09,24,05,02,11.80
2009,09,24,05,03,11.80
2009,09,24,05,04,11.80
2009,09,24,05,05,11.80
2009,09,24,05,06,11.80
2009,09,24,05,07,11.80
2009,09,24,05,08,11.80
2009,09,24,05,09,11.80
2009,09,24,05,10,11.80
2009,09,24,05,11,11.80
2009,09,24,05,12,11.80
2009,09,24,05,13,11.80
2009,09,24,05,14,11.70
2009,09,24,05,15,11.70
2009,09,24,05,16,11.70
2009,09,24,05,17,11.70
2009,09,24,05,18,11.70
2009,09,24,05,19,11.70
2009,09,24,05,20,11.70
2009,09,24,05,21,11.70
2009,09,24,05,22,11.70
2009,09,24,05,23,11.70
2009,09,24,05,24,11.70
2009,09,24,05,25,11.70
2009,09,24,05,26,11.70
2009,09,24,05,27,11.70
2009,09,24,05,28,11.70
2009,09,24,05,29,11.70
2009,09,24,05,30,11.60
2009,09,24,05,31,11.60
2009,09,24,05,32,11.60
2009,09,24,05,33,11.60
2009,09,24,05,34,11.60
2009,09,24,05,35,11.60
2009,09,24,05,36,11.60
2009,09,24,05,37,11.60
2009,09,24,05,38,11.60
2009,09,24,05,39,11.60
2009,09,24,05,40,11.50
2009,09,24,05,41,11.50
2009,09,24,05,42,11.50
2009,09,24,05,43,11.50
2009,09,24,05,44,11.50
2009,09,24,05,45,11.50
2009,09,24,05,46,11.40
2009,09,24,05,47,11.40
2009,09,24,05,48,11.40
2009,09,24,05,49,11.40
2009,09,24,05,50,11.40
2009,09,24,05,51,11.40
2009,09,24,05,52,11.40
2009,09,24,05,53,11.30
2009,09,24,05,54,11.30
2009,09,24,05,55,11.30
2009,09,24,05,56,11.30
2009,09,24,05,57,11.30
2009,09,24,05,58,11.30
2009,09,24,05,59,11.30
2009,09,24,06,00,11.20
2009,09,24,06,01,11.20
2009,09,24,06,02,11.20
2009,09,24,06,03,11.20
2009,09,24,06,04,11.20
2009,09,24,06,05,11.20
2009,09,24,06,06,11.20
2009,09,24,06,07,11.20
2009,09,24,06,08,11.20
2009,09,24,06,09,11.20
2009,09,24,06,10,11.10
2009,09,24,06,11,11.10
2009,09,24,06,12,11.10
2009,09,24,06,13,11.10
2009,09,24,06,14,11.10
2009,09,24,06,15,11.10
2009,09,24,06,16,11.10
2009,09,24,06,17,11.10
2009,09,24,06,18,11.10
2009,09,24,06,19,11.10
2009,09,24,06,20,11.10
2009,09,24,06,21,11.10
2009,09,24,06,22,11.10
2009,09,24,06,23,11.10
2009,09,24,06,24,11.10
2009,09,24,06,25,11.10
2009,09,24,06,26,11.10
2009,09,24,06,27,11.10
2009,09,24,06,28,11.10
2009,09,24,06,29,11.00
2009,09,24,06,30,11.00
2009,09,24,06,31,11.00
2009,09,24,06,32,11.00
2009,09,24,06,33,11.00
2009,09,24,06,34,11.00
2009,09,24,06,35,11.00
2009,09,24,06,36,11.00
2009,09,24,06,37,11.00
2009,09,24,06,38,11.00
2009,09,24,06,39,11.00
2009,09,24,06,40,11.00
2009,09,24,06,41,11.00
2009,09,24,06,42,11.00
2009,09,24,06,43,11.00
2009,09,24,06,44,11.00
2009,09,24,06,45,11.00
2009,09,24,06,46,11.00
2009,09,24,06,47,11.00
2009,09,24,06,48,11.00
2009,09,24,06,49,11.00
2009,09,24,06,50,11.00
2009,09,24,06,51,11.00
2009,09,24,06,52,11.00
2009,09,24,06,53,11.00
2009,09,24,06,54,11.00
2009,09,24,06,55,11.00
2009,09,24,06,56,11.00
2009,09,24,06,57,11.00
2009,09,24,06,58,11.00
2009,09,24,06,59,11.00
2009,09,24,07,00,11.00
2009,09,24,07,01,10.90
2009,09,24,07,02,10.90
2009,09,24,07,03,10.90
2009,09,24,07,04,10.90
2009,09,24,07,05,10.90
2009,09,24,07,06,10.90
2009,09,24,07,07,10.90
2009,09,24,07,08,10.90
2009,09,24,07,09,10.90
2009,09,24,07,10,10.80
2009,09,24,07,11,10.80
2009,09,24,07,12,10.80
2009,09,24,07,13,10.80
2009,09,24,07,14,10.80
2009,09,24,07,15,10.80
2009,09,24,07,16,10.80
2009,09,24,07,17,10.80
2009,09,24,07,18,10.80
2009,09,24,07,19,10.80
2009,09,24,07,20,10.80
2009,09,24,07,21,10.70
2009,09,24,07,22,10.70
2009,09,24,07,23,10.70
2009,09,24,07,24,10.70
2009,09,24,07,25,10.70
2009,09,24,07,26,10.70
2009,09,24,07,27,10.80
2009,09,24,07,28,10.70
2009,09,24,07,29,10.70
2009,09,24,07,30,10.70
2009,09,24,07,31,10.70
2009,09,24,07,32,10.70
2009,09,24,07,33,10.70
2009,09,24,07,34,10.70
2009,09,24,07,35,10.70
2009,09,24,07,36,10.70
2009,09,24,07,37,10.70
2009,09,24,07,38,10.70
2009,09,24,07,39,10.70
2009,09,24,07,40,10.70
2009,09,24,07,41,10.70
2009,09,24,07,42,10.70
2009,09,24,07,43,10.70
2009,09,24,07,44,10.70
2009,09,24,07,45,10.70
2009,09,24,07,46,10.70
2009,09,24,07,47,10.70
2009,09,24,07,48,10.70
2009,09,24,07,49,10.70
2009,09,24,07,50,10.70
2009,09,24,07,51,10.70
2009,09,24,07,52,10.70
2009,09,24,07,53,10.70
2009,09,24,07,54,10.70
2009,09,24,07,55,10.70
2009,09,24,07,56,10.70
2009,09,24,07,57,10.70
2009,09,24,07,58,10.80
2009,09,24,07,59,10.80
2009,09,24,08,00,10.80
2009,09,24,08,01,10.80
2009,09,24,08,02,10.80
2009,09,24,08,03,10.80
2009,09,24,08,04,10.80
2009,09,24,08,05,10.80
2009,09,24,08,06,10.80
2009,09,24,08,07,10.80
2009,09,24,08,08,10.80
2009,09,24,08,09,10.80
2009,09,24,08,10,10.80
2009,09,24,08,11,10.70
2009,09,24,08,12,10.70
2009,09,24,08,13,10.70
2009,09,24,08,14,10.70
2009,09,24,08,15,10.70
2009,09,24,08,16,10.70
2009,09,24,08,17,10.70
2009,09,24,08,18,10.70
2009,09,24,08,19,10.70
2009,09,24,08,20,10.70
2009,09,24,08,21,10.70
2009,09,24,08,22,10.70
2009,09,24,08,23,10.70
2009,09,24,08,24,10.70
2009,09,24,08,25,10.70
2009,09,24,08,26,10.70
2009,09,24,08,27,10.70
2009,09,24,08,28,10.70
2009,09,24,08,29,10.70
2009,09,24,08,30,10.70
2009,09,24,08,31,10.70
2009,09,24,08,32,10.70
2009,09,24,08,33,10.70
2009,09,24,08,34,10.70
2009,09,24,08,35,10.80
2009,09,24,08,36,10.80
2009,09,24,08,37,10.80
2009,09,24,08,38,10.80
2009,09,24,08,39,10.80
2009,09,24,08,40,10.80
2009,09,24,08,41,10.80
2009,09,24,08,42,10.80
2009,09,24,08,43,10.90
2009,09,24,08,44,10.90
2009,09,24,08,45,10.90
2009,09,24,08,46,10.90
2009,09,24,08,47,10.90
2009,09,24,08,48,11.00
2009,09,24,08,49,11.00
2009,09,24,08,50,11.00
2009,09,24,08,51,11.00
2009,09,24,08,52,11.10
2009,09,24,08,53,11.10
2009,09,24,08,54,11.10
2009,09,24,08,55,11.10
2009,09,24,08,56,11.10
2009,09,24,08,57,11.10
2009,09,24,08,58,11.10
2009,09,24,08,59,11.10
2009,09,24,09,00,11.10
2009,09,24,09,01,11.20
2009,09,24,09,02,11.20
2009,09,24,09,03,11.20
2009,09,24,09,04,11.20
2009,09,24,09,05,11.20
2009,09,24,09,06,11.20
2009,09,24,09,07,11.30
2009,09,24,09,08,11.30
2009,09,24,09,09,11.30
2009,09,24,09,10,11.30
2009,09,24,09,11,11.30
2009,09,24,09,12,11.30
2009,09,24,09,13,11.30
2009,09,24,09,14,11.30
2009,09,24,09,15,11.30
2009,09,24,09,16,11.40
2009,09,24,09,17,11.40
2009,09,24,09,18,11.40
2009,09,24,09,19,11.50
2009,09,24,09,20,11.50
2009,09,24,09,21,11.60
2009,09,24,09,22,11.60
2009,09,24,09,23,11.60
2009,09,24,09,24,11.70
2009,09,24,09,25,11.70
2009,09,24,09,26,11.70
2009,09,24,09,27,11.70
2009,09,24,09,28,11.80
2009,09,24,09,29,11.80
2009,09,24,09,30,11.80
2009,09,24,09,31,11.80
2009,09,24,09,32,11.80
2009,09,24,09,33,11.90
2009,09,24,09,34,11.90
2009,09,24,09,35,11.90
2009,09,24,09,36,12.00
2009,09,24,09,37,12.00
2009,09,24,09,38,12.10
2009,09,24,09,39,12.10
2009,09,24,09,40,12.10
2009,09,24,09,41,12.10
2009,09,24,09,42,12.10
2009,09,24,09,43,12.20
2009,09,24,09,44,12.20
2009,09,24,09,45,12.20
2009,09,24,09,46,12.30
2009,09,24,09,47,12.30
2009,09,24,09,48,12.30
2009,09,24,09,49,12.30
2009,09,24,09,50,12.40
2009,09,24,09,51,12.40
2009,09,24,09,52,12.40
2009,09,24,09,53,12.40
2009,09,24,09,54,12.50
2009,09,24,09,55,12.50
2009,09,24,09,56,12.60
2009,09,24,09,57,12.60
2009,09,24,09,58,12.70
2009,09,24,09,59,12.70
2009,09,24,10,00,12.80
2009,09,24,10,01,12.80
2009,09,24,10,02,12.80
2009,09,24,10,03,12.90
2009,09,24,10,04,13.00
2009,09,24,10,05,13.00
2009,09,24,10,06,13.10
2009,09,24,10,07,13.20
2009,09,24,10,08,13.20
2009,09,24,10,09,13.30
2009,09,24,10,10,13.30
2009,09,24,10,11,13.40
2009,09,24,10,12,13.40
2009,09,24,10,13,13.50
2009,09,24,10,14,13.50
2009,09,24,10,15,13.60
2009,09,24,10,16,13.60
2009,09,24,10,17,13.60
2009,09,24,10,18,13.70
2009,09,24,10,19,13.70
2009,09,24,10,20,13.80
2009,09,24,10,21,13.80
2009,09,24,10,22,13.80
2009,09,24,10,23,13.90
2009,09,24,10,24,13.90
2009,09,24,10,25,14.00
2009,09,24,10,26,14.10
2009,09,24,10,27,14.10
2009,09,24,10,28,14.20
2009,09,24,10,29,14.20
2009,09,24,10,30,14.20
2009,09,24,10,31,14.30
2009,09,24,10,32,14.30
2009,09,24,10,33,14.40
2009,09,24,10,34,14.40
2009,09,24,10,35,14.50
2009,09,24,10,36,14.50
2009,09,24,10,37,14.60
2009,09,24,10,38,14.70
2009,09,24,10,39,14.80
2009,09,24,10,40,14.90
2009,09,24,10,41,15.00
2009,09,24,10,42,15.00
2009,09,24,10,43,15.00
2009,09,24,10,44,15.00
2009,09,24,10,45,15.10
2009,09,24,10,46,15.20
2009,09,24,10,47,15.30
2009,09,24,10,48,15.30
2009,09,24,10,49,15.30
2009,09,24,10,50,15.40
2009,09,24,10,51,15.40
2009,09,24,10,52,15.50
2009,09,24,10,53,15.50
2009,09,24,10,54,15.60
2009,09,24,10,55,15.60
2009,09,24,10,56,15.60
2009,09,24,10,57,15.70
2009,09,24,10,58,15.70
2009,09,24,10,59,15.80
2009,09,24,11,00,15.80
2009,09,24,11,01,15.90
2009,09,24,11,02,15.90
2009,09,24,11,03,16.00
2009,09,24,11,04,16.00
2009,09,24,11,05,16.00
2009,09,24,11,06,16.10
2009,09,24,11,07,16.10
2009,09,24,11,08,16.10
2009,09,24,11,09,16.20
2009,09,24,11,10,16.20
2009,09,24,11,11,16.20
2009,09,24,11,12,16.20
2009,09,24,11,13,16.20
2009,09,24,11,14,16.20
2009,09,24,11,15,16.20
2009,09,24,11,16,16.20
2009,09,24,11,17,16.20
2009,09,24,11,18,16.20
2009,09,24,11,19,16.30
2009,09,24,11,20,16.30
2009,09,24,11,21,16.30
2009,09,24,11,22,16.30
2009,09,24,11,23,16.40
2009,09,24,11,24,16.40
2009,09,24,11,25,16.40
2009,09,24,11,26,16.40
2009,09,24,11,27,16.50
2009,09,24,11,28,16.50
2009,09,24,11,29,16.60
2009,09,24,11,30,16.60
2009,09,24,11,31,16.60
2009,09,24,11,32,16.60
2009,09,24,11,33,16.70
2009,09,24,11,34,16.70
2009,09,24,11,35,16.70
2009,09,24,11,36,16.70
2009,09,24,11,37,16.70
2009,09,24,11,38,16.80
2009,09,24,11,39,16.80
2009,09,24,11,40,16.90
2009,09,24,11,41,16.90
2009,09,24,11,42,16.90
2009,09,24,11,43,17.00
2009,09,24,11,44,17.00
2009,09,24,11,45,17.00
2009,09,24,11,46,17.00
2009,09,24,11,47,17.10
2009,09,24,11,48,17.10
2009,09,24,11,49,17.10
2009,09,24,11,50,17.10
2009,09,24,11,51,17.10
2009,09,24,11,52,17.20
2009,09,24,11,53,17.20
2009,09,24,11,54,17.20
2009,09,24,11,55,17.30
2009,09,24,11,56,17.30
2009,09,24,11,57,17.40
2009,09,24,11,58,17.40
2009,09,24,11,59,17.50
2009,09,24,12,00,17.50
2009,09,24,12,01,17.60
2009,09,24,12,02,17.60
2009,09,24,12,03,17.70
2009,09,24,12,04,17.80
2009,09,24,12,05,17.80
2009,09,24,12,06,17.80
2009,09,24,12,07,17.90
2009,09,24,12,08,17.90
2009,09,24,12,09,17.90
2009,09,24,12,10,18.00
2009,09,24,12,11,18.10
2009,09,24,12,12,18.10
2009,09,24,12,13,18.10
2009,09,24,12,14,18.20
2009,09,24,12,15,18.30
2009,09,24,12,16,18.30
2009,09,24,12,17,18.30
2009,09,24,12,18,18.40
2009,09,24,12,19,18.40
2009,09,24,12,20,18.50
2009,09,24,12,21,18.50
2009,09,24,12,22,18.50
2009,09,24,12,23,18.60
2009,09,24,12,24,18.60
2009,09,24,12,25,18.60
2009,09,24,12,26,18.60
2009,09,24,12,27,18.60
2009,09,24,12,28,18.60
2009,09,24,12,29,18.60
2009,09,24,12,30,18.60
2009,09,24,12,31,18.60
2009,09,24,12,32,18.60
2009,09,24,12,33,18.60
2009,09,24,12,34,18.60
2009,09,24,12,35,18.60
2009,09,24,12,36,18.60
2009,09,24,12,37,18.60
2009,09,24,12,38,18.60
2009,09,24,12,39,18.70
2009,09,24,12,40,18.70
2009,09,24,12,41,18.70
2009,09,24,12,42,18.70
2009,09,24,12,43,18.70
2009,09,24,12,44,18.70
2009,09,24,12,45,18.80
2009,09,24,12,46,18.80
2009,09,24,12,47,18.80
2009,09,24,12,48,18.80
2009,09,24,12,49,18.80
2009,09,24,12,50,18.80
2009,09,24,12,51,18.80
2009,09,24,12,52,18.80
2009,09,24,12,53,18.90
2009,09,24,12,54,18.90
2009,09,24,12,55,18.90
2009,09,24,12,56,18.90
2009,09,24,12,57,18.90
2009,09,24,12,58,18.90
2009,09,24,12,59,18.90
2009,09,24,13,00,18.90
2009,09,24,13,01,18.90
2009,09,24,13,02,19.00
2009,09,24,13,03,19.00
2009,09,24,13,04,19.00
2009,09,24,13,05,19.10
2009,09,24,13,06,19.10
2009,09,24,13,07,19.10
2009,09,24,13,08,19.10
2009,09,24,13,09,19.10
2009,09,24,13,10,19.10
2009,09,24,13,11,19.10
2009,09,24,13,12,19.10
2009,09,24,13,13,19.00
2009,09,24,13,14,18.90
2009,09,24,13,15,18.90
2009,09,24,13,16,18.90
2009,09,24,13,17,18.80
2009,09,24,13,18,18.80
2009,09,24,13,19,18.80
2009,09,24,13,20,18.80
2009,09,24,13,21,18.80
2009,09,24,13,22,18.70
2009,09,24,13,23,18.70
2009,09,24,13,24,18.70
2009,09,24,13,25,18.70
2009,09,24,13,26,18.60
2009,09,24,13,27,18.60
2009,09,24,13,28,18.60
2009,09,24,13,29,18.60
2009,09,24,13,30,18.50
2009,09,24,13,31,18.50
2009,09,24,13,32,18.40
2009,09,24,13,33,18.40
2009,09,24,13,34,18.40
2009,09,24,13,35,18.40
2009,09,24,13,36,18.40
2009,09,24,13,37,18.40
2009,09,24,13,38,18.40
2009,09,24,13,39,18.40
2009,09,24,13,40,18.40
2009,09,24,13,41,18.50
2009,09,24,13,42,18.50
2009,09,24,13,43,18.60
2009,09,24,13,44,18.60
2009,09,24,13,45,18.60
2009,09,24,13,46,18.60
2009,09,24,13,47,18.60
2009,09,24,13,48,18.60
2009,09,24,13,49,18.70
2009,09,24,13,50,18.70
2009,09,24,13,51,18.80
2009,09,24,13,52,18.90
2009,09,24,13,53,19.00
2009,09,24,13,54,19.00
2009,09,24,13,55,19.10
2009,09,24,13,56,19.10
2009,09,24,13,57,19.10
2009,09,24,13,58,19.20
2009,09,24,13,59,19.20
2009,09,24,14,00,19.30
2009,09,24,14,01,19.40
2009,09,24,14,02,19.50
2009,09,24,14,03,19.50
2009,09,24,14,04,19.60
2009,09,24,14,05,19.60
2009,09,24,14,06,19.70
2009,09,24,14,07,19.80
2009,09,24,14,08,19.80
2009,09,24,14,09,19.90
2009,09,24,14,10,20.00
2009,09,24,14,11,20.10
2009,09,24,14,12,20.20
2009,09,24,14,13,20.20
2009,09,24,14,14,20.20
2009,09,24,14,15,20.30
2009,09,24,14,16,20.30
2009,09,24,14,17,20.40
2009,09,24,14,18,20.40
2009,09,24,14,19,20.40
2009,09,24,14,20,20.50
2009,09,24,14,21,20.50
2009,09,24,14,22,20.50
2009,09,24,14,23,20.60
2009,09,24,14,24,20.70
2009,09,24,14,25,20.80
2009,09,24,14,26,20.80
2009,09,24,14,27,20.90
2009,09,24,14,28,20.90
2009,09,24,14,29,21.00
2009,09,24,14,30,21.00
2009,09,24,14,31,21.10
2009,09,24,14,32,21.10
2009,09,24,14,33,21.20
2009,09,24,14,34,21.20
2009,09,24,14,35,21.20
2009,09,24,14,36,21.20
2009,09,24,14,37,21.20
2009,09,24,14,38,21.20
2009,09,24,14,39,21.30
2009,09,24,14,40,21.30
2009,09,24,14,41,21.30
2009,09,24,14,42,21.30
2009,09,24,14,43,21.40
2009,09,24,14,44,21.30
2009,09,24,14,45,21.30
2009,09,24,14,46,21.20
2009,09,24,14,47,21.20
2009,09,24,14,48,21.20
2009,09,24,14,49,21.10
2009,09,24,14,50,21.10
2009,09,24,14,51,21.10
2009,09,24,14,52,21.10
2009,09,24,14,53,21.10
2009,09,24,14,54,21.20
2009,09,24,14,55,21.20
2009,09,24,14,56,21.30
2009,09,24,14,57,21.30
2009,09,24,14,58,21.30
2009,09,24,14,59,21.20
2009,09,24,15,00,21.20
2009,09,24,15,01,21.20
2009,09,24,15,02,21.20
2009,09,24,15,03,21.20
2009,09,24,15,04,21.20
2009,09,24,15,05,21.20
2009,09,24,15,06,21.30
2009,09,24,15,07,21.30
2009,09,24,15,08,21.30
2009,09,24,15,09,21.30
2009,09,24,15,10,21.30
2009,09,24,15,11,21.30
2009,09,24,15,12,21.40
2009,09,24,15,13,21.40
2009,09,24,15,14,21.30
2009,09,24,15,15,21.30
2009,09,24,15,16,21.30
2009,09,24,15,17,21.20
2009,09,24,15,18,21.20
2009,09,24,15,19,21.20
2009,09,24,15,20,21.20
2009,09,24,15,21,21.10
2009,09,24,15,22,21.10
2009,09,24,15,23,21.20
2009,09,24,15,24,21.20
2009,09,24,15,25,21.20
2009,09,24,15,26,21.20
2009,09,24,15,27,21.20
2009,09,24,15,28,21.20
2009,09,24,15,29,21.20
2009,09,24,15,30,21.20
2009,09,24,15,31,21.20
2009,09,24,15,32,21.20
2009,09,24,15,33,21.20
2009,09,24,15,34,21.20
2009,09,24,15,35,21.20
2009,09,24,15,36,21.20
2009,09,24,15,37,21.20
2009,09,24,15,38,21.30
2009,09,24,15,39,21.30
2009,09,24,15,40,21.30
2009,09,24,15,41,21.30
2009,09,24,15,42,21.40
2009,09,24,15,43,21.40
2009,09,24,15,44,21.40
2009,09,24,15,45,21.40
2009,09,24,15,46,21.30
2009,09,24,15,47,21.30
2009,09,24,15,48,21.30
2009,09,24,15,49,21.30
2009,09,24,15,50,21.30
2009,09,24,15,51,21.30
2009,09,24,15,52,21.20
2009,09,24,15,53,21.20
2009,09,24,15,54,21.20
2009,09,24,15,55,21.20
2009,09,24,15,56,21.20
2009,09,24,15,57,21.20
2009,09,24,15,58,21.30
2009,09,24,15,59,21.30
2009,09,24,16,00,21.40
2009,09,24,16,01,21.40
2009,09,24,16,02,21.50
2009,09,24,16,03,21.60
2009,09,24,16,04,21.60
2009,09,24,16,05,21.70
2009,09,24,16,06,21.70
2009,09,24,16,07,21.70
2009,09,24,16,08,21.70
2009,09,24,16,09,21.70
2009,09,24,16,10,21.70
2009,09,24,16,11,21.70
2009,09,24,16,12,21.70
2009,09,24,16,13,21.70
2009,09,24,16,14,21.70
2009,09,24,16,15,21.70
2009,09,24,16,16,21.70
2009,09,24,16,17,21.70
2009,09,24,16,18,21.70
2009,09,24,16,19,21.70
2009,09,24,16,20,21.60
2009,09,24,16,21,21.60
2009,09,24,16,22,21.50
2009,09,24,16,23,21.40
2009,09,24,16,24,21.40
2009,09,24,16,25,21.30
2009,09,24,16,26,21.30
2009,09,24,16,27,21.20
2009,09,24,16,28,21.20
2009,09,24,16,29,21.20
2009,09,24,16,30,21.10
2009,09,24,16,31,21.10
2009,09,24,16,32,21.10
2009,09,24,16,33,21.10
2009,09,24,16,34,21.10
2009,09,24,16,35,21.10
2009,09,24,16,36,21.10
2009,09,24,16,37,21.10
2009,09,24,16,38,21.10
2009,09,24,16,39,21.10
2009,09,24,16,40,21.00
2009,09,24,16,41,21.00
2009,09,24,16,42,21.00
2009,09,24,16,43,21.00
2009,09,24,16,44,20.90
2009,09,24,16,45,20.90
2009,09,24,16,46,20.80
2009,09,24,16,47,20.80
2009,09,24,16,48,20.70
2009,09,24,16,49,20.60
2009,09,24,16,50,20.60
2009,09,24,16,51,20.50
2009,09,24,16,52,20.40
2009,09,24,16,53,20.40
2009,09,24,16,54,20.30
2009,09,24,16,55,20.20
2009,09,24,16,56,20.10
2009,09,24,16,57,20.10
2009,09,24,16,58,20.00
2009,09,24,16,59,20.00
2009,09,24,17,00,20.00
2009,09,24,17,01,20.00
2009,09,24,17,02,20.00
2009,09,24,17,03,19.90
2009,09,24,17,04,19.90
2009,09,24,17,05,19.90
2009,09,24,17,06,19.90
2009,09,24,17,07,19.90
2009,09,24,17,08,19.90
2009,09,24,17,09,19.80
2009,09,24,17,10,19.80
2009,09,24,17,11,19.80
2009,09,24,17,12,19.80
2009,09,24,17,13,19.80
2009,09,24,17,14,19.80
2009,09,24,17,15,19.80
2009,09,24,17,16,19.80
2009,09,24,17,17,19.80
2009,09,24,17,18,19.80
2009,09,24,17,19,19.90